Regional Weather Roundup
Issued by NWS

Home | Current Version | Previous Version | Text Only | Print | Product List | Glossary On
Versions: 1 2 3 4 5 6 7 8 9 10 11 12 13 14 15 16 17 18 19 20 21 22 23 24 25 26 27 28 29 30 31 32 33 34 35 36 37 38 39 40 41 42 43 44 45 46 47 48 49 50
423
ASUS43 KMKX 250400
RWRWI

WISCONSIN REGIONAL WEATHER ROUNDUP
NATIONAL WEATHER SERVICE MILWAUKEE/SULLIVAN WI
1100 PM CDT MON JUL 24 2017

NOTE: "FAIR" INDICATES FEW OR NO CLOUDS BELOW 12,000 FEET WITH NO
SIGNIFICANT WEATHER AND/OR OBSTRUCTIONS TO VISIBILITY.

WIZ001-002-006>008-014>016-023>028-250500-
NORTHWEST WISCONSIN

CITY           SKY/WX    TMP DP  RH WIND       PRES   REMARKS
SUPERIOR ARPT  NOT AVBL
ASHLAND        CLOUDY    53  53 100 CALM      30.06F FOG
HAYWARD        PTCLDY    60  56  86 CALM      30.08R
SIREN          MOCLDY    65  59  79 S6        30.05S
CUMBERLAND     PTCLDY    59  55  88 SE6       30.08S
RICE LAKE      PTCLDY    62  57  84 SE3       30.09R
CHETEK         PTCLDY    61  59  93 CALM      30.08R
LADYSMITH      CLOUDY    65  58  79 CALM      30.11R
EAU CLAIRE     NOT AVBL
MENOMONIE      CLEAR     64  60  87 CALM      30.08S
NEW RICHMOND   PTCLDY    64  58  82 SE6       30.06S
OSCEOLA        PTCLDY    66  60  79 SE7       30.07R
$$

WIZ003>005-009-010-017-018-250500-
NORTH CENTRAL WISCONSIN

CITY           SKY/WX    TMP DP  RH WIND       PRES   REMARKS
MANITOWISH WTR CLOUDY    57  57 100 CALM      30.11S
ARBOR VITAE    PTCLDY    60  56  88 CALM      30.11S
WOODRUFF       PTCLDY    60  56  88 CALM      30.11S
RHINELANDER    CLEAR     63  55  75 CALM      30.13S
EAGLE RIVER    CLEAR     61  52  71 CALM      30.12S
LAND O LAKES   CLEAR     55  54  95 CALM      30.13S
PHILLIPS       PTCLDY    59  58  95 CALM      30.10S
TOMAHAWK         N/A     57  55  92 CALM      30.13S
MEDFORD        CLOUDY    62  55  80 SE3       30.10F
MERRILL        CLOUDY    62  56  81 S5        30.12S
$$

WIZ029-030-035-036-043>047-250500-
CENTRAL WISCONSIN

CITY           SKY/WX    TMP DP  RH WIND       PRES   REMARKS
WAUSAU         CLEAR     61  53  75 E3        30.11S
MOSINEE        PTCLDY    59  54  82 E5        30.13S
MARSHFIELD     CLEAR     60  55  83 CALM      30.10F
STEVENS POINT  CLEAR     58  56  91 CALM      30.13S
WAUPACA        CLEAR     61  58  90 CALM      30.13R
WAUTOMA        CLEAR     60  58  92 CALM      30.13R
WISC RAPIDS    CLEAR     62  55  77 SE7       30.12S
CAMP DOUGLAS   NOT AVBL
$$

WIZ011>013-019>022-031-037>040-048>050-250500-
NORTHEAST WISCONSIN

CITY           SKY/WX    TMP DP  RH WIND       PRES   REMARKS
ANTIGO         CLEAR     58  53  83 CALM      30.14S
SHAWANO        CLEAR     63  56  78 CALM      30.12R
OCONTO         CLEAR     57  55  95 CALM      30.11F
STURGEON BAY     N/A     58  54  86 CALM      30.13S
GREEN BAY      CLEAR     58  57  97 W3        30.13R
MANITOWOC      NOT AVBL
APPLETON       PTCLDY    64  43  45 E3        30.12R
CLINTONVILLE   CLEAR    N/A N/A N/A CALM      30.12R
OSHKOSH        CLEAR     62  52  69 CALM      30.12R
$$

WIZ032>034-041-042-053>061-250500-
SOUTHWEST WISCONSIN

CITY           SKY/WX    TMP DP  RH WIND       PRES   REMARKS
LA CROSSE      CLEAR     66  61  84 E3        30.08R
SPARTA         CLEAR     59  58  97 CALM      30.10F
VIROQUA        CLEAR     65  60  86 CALM      30.11S
BOSCOBEL       CLEAR     60  58  92 CALM      30.10S
PRAIRIE DU CHI CLEAR     63  60  90 CALM      30.09R
PLATTEVILLE    CLEAR     63  62  97 CALM      30.11S
$$

WIZ056-057-062-063-064-067-068-250500-
SOUTH CENTRAL WISCONSIN

CITY           SKY/WX    TMP DP  RH WIND       PRES   REMARKS
REEDSBURG      CLOUDY    62  62 100 CALM      30.11R
BARABOO/DELLS  CLOUDY    61  58  89 CALM      30.12R
LONE ROCK      CLEAR     62  60  93 CALM      30.10S
MINERAL POINT  CLEAR     64  63  94 CALM      30.12R
MADISON        PTCLDY    61  57  87 CALM      30.12R
MIDDLETON      CLEAR     61  60  98 CALM      30.12R
WATERTOWN      CLEAR     58  56  91 E5        30.12R
MONROE         CLEAR     63  55  77 E5        30.11R
JANESVILLE     CLEAR     61  61 100 E5        30.10S
$$

WIZ051-052-058>065-066-070>072-250500-
SOUTHEAST WISCONSIN

CITY           SKY/WX    TMP DP  RH WIND       PRES   REMARKS
MILWAUKEE      CLEAR     64  56  75 NE3       30.12R
WAUKESHA       CLEAR     57  52  82 CALM      30.13
MILWAUKEE/TIMM CLEAR     61  52  72 CALM      30.12S
RACINE         CLEAR     62  58  86 E3        30.13S
KENOSHA        CLEAR     59  56  89 E5        30.11F
FOND DU LAC    CLEAR     60  48  64 CALM      30.12R
SHEBOYGAN      CLEAR     54  54 100 W3        30.12S
WEST BEND      CLEAR     54  54 100 CALM      30.12S
JUNEAU         CLEAR     61  52  72 CALM      30.13R
$$

LSZ147-162-250500-
LAKE SUPERIOR

STATION/POSITION TIME  TEMP    WIND        PRES    WAVE
                       AIR SEA DIR/SP/G            HT/PER
                 (UTC) (F)     (DEG/KT/KT) (MB)    (FT/S)
W MID LAKE BUOY  0250   56 51  140/  6/  6 1018.2R   0
DEVILS ISLAND    0300   62     140/  7/  8 1017.8R
SAXON HARBOR     0330   59     210/  3/  4 1017.3F
$$

LMZ867-665-643>646-250500-
LAKE MICHIGAN

STATION/POSITION TIME  TEMP    WIND        PRES    WAVE
                       AIR SEA DIR/SP/G            HT/PER
                 (UTC) (F)     (DEG/KT/KT) (MB)    (FT/S)
CHAMBERS ISLAND  0340   60     130/  2/  4 1019.3S
S GREEN BAY BUOY 0330   68 72  140/  8/ 10 1019.5R
N MID LAKE BUOY  0250   66 67  260/  6/  6 1020.4R   0
NORTHPORT PIER   0340   61     220/  3/  6 1020.0R
KEWAUNEE LAKESHO 0330   59     300/  3/  4 1019.1F
SHEBOYGAN LAKESH 0300   67      30/  8/  9 1019.5R
PORT WASHINGTON  0330   64     360/  3/  4 1020.7S
ATWATER BUOY     0209   67 69   30/ 10/ 14 1019.8R
MILWAUKEE LAKESH 0330   67      40/ 10/ 10   N/A
S MID LAKE BUOY  0250   68 70   20/ 12/ 14 1019.3R   3/ 6
KENOSHA   LAKESH 0300   67      30/ 11/ 12 1019.3
$$

TC  - TEMPERATURE IN CELSIUS
VSB - VISIBILITY IN STATUTE MILES
WCI - WIND CHILL INDEX
HX  - HEAT INDEX





USA.gov is the U.S. government's official web portal to all federal, state and local government web resources and services.